Location: De Greiden
(52.9496°N, 5.9137°E)
Time: 22:40:45
(UTC+00:00)

X-37B - Pass Details

Date: 24 January 2021
Orbit: 383 x 391 km, 45.0° (Epoch: 27 February)

Event Time Altitude Azimuth Distance (km) Brightness Sun altitude
Rises 18:24:54 0° 247° (WSW) 2,274 5.8 -20.5°
Reaches altitude 10° 18:27:18 10° 230° (SW) 1,420 4.2 -20.8°
Enters shadow 18:29:28 20° 188° (S) 978 2.7 -21.2°
